User: anonymous   Login
Location: Unspecified
(0.0000°N, 0.0000°E)
Time: 12:56:58
(UTC+00:00)
Language:

CBERS-4 - Orbit

View from above orbital plane
View from above orbital plane
View from above satellite
View from above satellite

Ground track
Ground track

The orbit data is extracted from the following two-line orbital elements,

1 40336U 14079A   23272.17375146  .00000266  00000-0  10754-3 0  9991
2 40336  98.4342 341.8898 0001768  74.9189 285.2192 14.35469834461657
Epoch (UTC): 29 September 2023 04:10:12
Eccentricity: 0.0001768
inclination: 98.4342°
perigee height: 772 km
apogee height: 775 km
right ascension of ascending node: 341.8898°
argument of perigee: 74.9189°
revolutions per day: 14.35469834
mean anomaly at epoch: 285.2192°
orbit number at epoch: 46165

The dashed part of the orbit path shows where the satellite is in the earth's shadow,  

DLR